sat.trackr.live / text

‹ back to catalog

PELICAN-3

NORAD 65315 · 2025-188A

PAYLOAD ACTIVE UNKNOWN

§ Identity

Operator
Country
US
Launch date
2025-08-26
Launch site
AFWTR
Launch vehicle
Mass (kg)
RCS (m²)

Purposes: earth_obs

External: N2YO · Heavens-Above · Gunter

§ Orbital elements

Epoch: 2026-09-17T18:32:04.497792Z

Period
93.44 min
Inclination
97.1887°
Eccentricity
0.0000512
Mean motion
15.41074407 rev/d
Perigee alt
442.6 km
Apogee alt
443.3 km
Semi-major
6,821.1 km
B*
1.3489e-4
RAAN
335.5292°
Arg perigee
52.9151°
Mean anomaly
307.2143°
Rev number
5,957

§ Raw data

PELICAN-31 65315U 25188A   26260.77227428  .00005492  00000+0  13489-3 0  99962 65315  97.1887 335.5292 0000512  52.9151 307.2143 15.41074407 59571

JSON: /api/v1/satellites/65315 · /tle

For live sub-satellite position, see the globe view (requires WebGL).

§ Visibility from observer

Set your observer location to see the next 7 days of passes ≥ 10°. The values pass through the URL so the page stays shareable.

No JS? Fill the form by hand. The geolocation button needs JavaScript.